Regional Weather Roundup
Issued by NWS

Home | Current Version | Previous Version | Text Only | Print | Product List | Glossary On
Versions: 1 2 3 4 5 6 7 8 9 10 11 12 13 14 15 16 17 18 19 20 21 22 23 24 25 26 27 28 29 30 31 32 33 34 35 36 37 38 39 40 41 42 43 44 45 46 47 48 49 50
000
ASUS43 KFSD 031510
RWRSD

WEATHER ROUNDUP FOR SOUTH DAKOTA
NATIONAL WEATHER SERVICE SIOUX FALLS SD
1000 AM CDT TUE MAY 03 2016

NOTE: "FAIR" INDICATES FEW OR NO CLOUDS BELOW 12,000 FEET WITH NO
SIGNIFICANT WEATHER AND/OR OBSTRUCTIONS TO VISIBILITY.


SDZ001>005-009-010-012>017-031600-
NORTHWEST AND NORTH CENTRAL SOUTH DAKOTA

CITY           SKY/WX    TMP DP  RH WIND       PRES   REMARKS
BUFFALO          N/A     62  40  44 NW15      30.03R
FAITH            N/A     59  42  53 NW9       30.07R
MOBRIDGE       SUNNY     55  45  68 NW9       30.00S
$$

SDZ012>016-024>037-041>051-057-063-072>074-031600-
SOUTHWEST AND SOUTH CENTRAL SOUTH DAKOTA

CITY           SKY/WX    TMP DP  RH WIND       PRES   REMARKS
RAPID CTY ARPT SUNNY     60  38  43 NW8       30.11R
PIERRE         SUNNY     52  44  74 W7        30.04S
CUSTER         SUNNY     56  27  32 N9G18     30.16R
ELLSWORTH AFB  SUNNY     60  42  51 N10       30.10R
PHILIP         SUNNY     55  49  80 W7        30.08S
PINE RIDGE     SUNNY     51  40  65 W6        30.12S
WINNER         FAIR      57  45  64 NW9       30.08R
$$

SDZ004>011-016>023-039-040-031600-
NORTHEAST SOUTH DAKOTA

CITY           SKY/WX    TMP DP  RH WIND       PRES   REMARKS
ABERDEEN       SUNNY     58  46  64 W9        29.98F
WATERTOWN      SUNNY     59  45  59 W17       29.96F
BROOKINGS      SUNNY     57  44  62 W15       29.98F
SISSETON         N/A     61  45  55 W16G25    29.92F
$$

SDZ017-020-022-023-036>040-048>070-031600-
SOUTHEAST SOUTH DAKOTA

CITY           SKY/WX    TMP DP  RH WIND       PRES   REMARKS
SIOUX FALLS    MOSUNNY   58  45  62 NW12      30.02S
HURON          SUNNY     58  46  64 W12       30.01F
CHAMBERLAIN    SUNNY     53  48  84 W8        30.07S
MITCHELL       SUNNY     57  48  72 NW7       30.04F
YANKTON        SUNNY     57  46  67 NW10      30.04S
$$

ABBREVIATIONS USED IN REMARKS
   TC - TEMPERATURE IN CELSIUS
  WCI - WIND CHILL INDEX
   HX - HEAT INDEX
  VSB - VISIBILITY





USA.gov is the U.S. government's official web portal to all federal, state and local government web resources and services.